IRNSS-1G (41469 NORAD) Tracking and Keplerian Element Data

This shows tracking and keplerian element data for the satellite.

Feedback or suggestion? Click here.




ElementValue
Catalog41469
NameIRNSS-1G
Epoch Orbit944
Epoch Day322.17959768
Epoch Year2018
RAAN251.2749
Inclination3.1712
Eccentricity0.0003683
Argument of Perigee226.2758
Mean Anonmoly133.8635
Mean Motion1.00272004
Decay Rate-3.28E-06
L11 41469U 16027A 18322.17959768 -.00000328 00000-0 00000-0 0 9992
L22 41469 3.1712 251.2749 0003683 226.2758 133.8635 1.00272004 9444

Live tracking and technical data element details for IRNSS-1G (NORAD 41469). IRNSS-1G can be tracked NOW for your location showing map with azimuth and elevation plus other details from your city location.

Track the satellite on the map from your city or location and see movement details for azimuth, elevation, latitude, longitude, range, height, and movement on the map or in text.







IsCatalogInMostPopularTable: catalog: 41469, numindb: 111
Update: records affected: 1



GetName: 41469 IRNSS-1G

Hit Count: updated at: Mon, 19 Nov 2018 10:58:44 GMT